• In Hungary
  • List of Countries
  • For 7 days
  • Water Temperature
  • Satellite Maps
  • Weather Map
  • News
  • Weather Widgets
  • user-avatar
    Login

    Hourly Weather Stanislavka

    Today, 16 December, Saturday

    Time Temperature Precipitation Wind Pressure Humidity
    00:00 +4°C° 0 mm 3 mps 751 mmHg 94%
    01:00 +4°C° 0 mm 4 mps 751 mmHg 94%
    02:00 +4°C° 0 mm 3 mps 751 mmHg 95%
    03:00 +4°C° 0 mm 4 mps 751 mmHg 95%
    04:00 +3°C° 0 mm 5 mps 751 mmHg 96%
    05:00 +4°C° 0 mm 6 mps 751 mmHg 96%
    06:00 +4°C° 0 mm 6 mps 751 mmHg 95%
    07:00 +4°C° 0 mm 6 mps 751 mmHg 94%
    08:00 +5°C° 0 mm 6 mps 751 mmHg 93%
    09:00 +5°C° 0 mm 6 mps 750 mmHg 90%
    10:00 +6°C° 0 mm 7 mps 750 mmHg 88%
    11:00 +8°C° 0 mm 7 mps 750 mmHg 85%
    12:00 +8°C° 0.4 mm 7 mps 750 mmHg 83%
    13:00 +8°C° 0.4 mm 7 mps 749 mmHg 81%
    14:00 +7°C° 0.4 mm 8 mps 749 mmHg 80%
    15:00 +7°C° 0 mm 8 mps 749 mmHg 75%
    16:00 +7°C° 0 mm 8 mps 749 mmHg 71%
    17:00 +7°C° 0 mm 8 mps 749 mmHg 67%
    18:00 +7°C° 0 mm 8 mps 749 mmHg 67%
    19:00 +7°C° 0 mm 8 mps 749 mmHg 67%
    20:00 +7°C° 0 mm 8 mps 749 mmHg 67%
    21:00 +7°C° 0 mm 8 mps 749 mmHg 68%
    22:00 +6°C° 0 mm 8 mps 749 mmHg 70%
    23:00 +6°C° 0 mm 8 mps 749 mmHg 71%

    Tomorrow, 17 December, Sunday

    Time Temperature Precipitation Wind Pressure Humidity
    00:00 +6°C° 0 mm 7 mps 749 mmHg 73%
    01:00 +6°C° 0 mm 7 mps 749 mmHg 76%
    02:00 +5°C° 0 mm 7 mps 749 mmHg 78%
    03:00 +6°C° 0 mm 7 mps 749 mmHg 78%
    04:00 +7°C° 0 mm 6 mps 749 mmHg 79%
    05:00 +7°C° 0 mm 6 mps 749 mmHg 80%
    06:00 +7°C° 0.1 mm 6 mps 750 mmHg 80%
    07:00 +7°C° 0.1 mm 6 mps 750 mmHg 80%
    08:00 +7°C° 0.1 mm 6 mps 750 mmHg 81%
    09:00 +7°C° 0.3 mm 6 mps 750 mmHg 80%
    10:00 +6°C° 0.3 mm 7 mps 750 mmHg 80%
    11:00 +6°C° 0.3 mm 7 mps 750 mmHg 79%
    12:00 +6°C° 0.3 mm 7 mps 750 mmHg 78%
    13:00 +7°C° 0.3 mm 6 mps 750 mmHg 77%
    14:00 +8°C° 0.3 mm 6 mps 750 mmHg 76%
    15:00 +7°C° 0.4 mm 6 mps 750 mmHg 78%
    16:00 +7°C° 0.4 mm 6 mps 750 mmHg 80%
    17:00 +7°C° 0.4 mm 6 mps 750 mmHg 82%
    18:00 +5°C° 0.1 mm 6 mps 750 mmHg 81%
    19:00 +5°C° 0.1 mm 6 mps 749 mmHg 80%
    20:00 +5°C° 0.1 mm 6 mps 749 mmHg 79%
    21:00 +5°C° 0.2 mm 6 mps 749 mmHg 79%
    22:00 +5°C° 0.2 mm 6 mps 749 mmHg 80%
    23:00 +5°C° 0.2 mm 6 mps 749 mmHg 80%

    Day after tomorrow, 18 December, Monday

    Time Temperature Precipitation Wind Pressure Humidity
    00:00 +5°C° 0.6 mm 6 mps 749 mmHg 81%
    01:00 +5°C° 0.6 mm 6 mps 748 mmHg 82%
    02:00 +5°C° 0.6 mm 6 mps 748 mmHg 83%
    03:00 +5°C° 1.1 mm 7 mps 748 mmHg 84%
    04:00 +5°C° 1.1 mm 7 mps 747 mmHg 85%
    05:00 +5°C° 1.1 mm 7 mps 747 mmHg 86%
    06:00 +5°C° 1 mm 7 mps 747 mmHg 86%
    07:00 +5°C° 1 mm 7 mps 747 mmHg 87%
    08:00 +5°C° 1 mm 7 mps 747 mmHg 87%
    09:00 +5°C° 1.1 mm 7 mps 747 mmHg 88%
    10:00 +5°C° 1.1 mm 7 mps 747 mmHg 88%
    11:00 +5°C° 1.1 mm 7 mps 747 mmHg 88%
    12:00 +7°C° 0.3 mm 6 mps 747 mmHg 88%
    13:00 +7°C° 0.3 mm 6 mps 747 mmHg 88%
    14:00 +7°C° 0.3 mm 6 mps 747 mmHg 88%
    15:00 +5°C° 0 mm 6 mps 747 mmHg 86%
    16:00 +4°C° 0 mm 6 mps 747 mmHg 84%
    17:00 +3°C° 0 mm 6 mps 748 mmHg 82%
    18:00 +3°C° 0 mm 6 mps 748 mmHg 81%
    19:00 +2°C° 0 mm 6 mps 749 mmHg 80%
    20:00 +2°C° 0 mm 6 mps 749 mmHg 78%
    21:00 +1°C° 0 mm 6 mps 750 mmHg 78%
    22:00 +1°C° 0 mm 6 mps 750 mmHg 78%
    23:00 +1°C° 0 mm 6 mps 751 mmHg 78%

    19 December, Tuesday

    Time Temperature Precipitation Wind Pressure Humidity
    00:00 0°C° 0 mm 5 mps 751 mmHg 78%
    01:00 0°C° 0 mm 5 mps 752 mmHg 78%
    02:00 0°C° 0 mm 5 mps 752 mmHg 79%
    03:00 0°C° 0 mm 5 mps 752 mmHg 79%
    04:00 -1°C° 0 mm 5 mps 753 mmHg 79%
    05:00 -1°C° 0 mm 5 mps 753 mmHg 79%
    06:00 -1°C° 0 mm 5 mps 753 mmHg 79%
    07:00 -1°C° 0 mm 5 mps 754 mmHg 79%
    08:00 -1°C° 0 mm 5 mps 754 mmHg 79%
    09:00 -1°C° 0 mm 5 mps 754 mmHg 77%
    10:00 -1°C° 0 mm 5 mps 755 mmHg 74%
    11:00 -1°C° 0 mm 5 mps 755 mmHg 72%
    12:00 -1°C° 0 mm 5 mps 755 mmHg 72%
    13:00 -1°C° 0 mm 5 mps 755 mmHg 71%
    14:00 -1°C° 0 mm 5 mps 756 mmHg 71%
    15:00 -1°C° 0 mm 5 mps 756 mmHg 71%
    16:00 -1°C° 0 mm 5 mps 756 mmHg 72%
    17:00 -1°C° 0 mm 5 mps 757 mmHg 72%
    18:00 -2°C° 0 mm 5 mps 757 mmHg 74%
    19:00 -2°C° 0 mm 4 mps 757 mmHg 75%
    20:00 -2°C° 0 mm 4 mps 757 mmHg 76%
    21:00 -2°C° 0 mm 4 mps 758 mmHg 77%
    22:00 -2°C° 0 mm 4 mps 758 mmHg 78%
    23:00 -3°C° 0 mm 4 mps 758 mmHg 79%

    20 December, Wednesday

    Time Temperature Precipitation Wind Pressure Humidity
    00:00 -3°C° 0 mm 4 mps 758 mmHg 77%
    01:00 -3°C° 0 mm 4 mps 758 mmHg 76%
    02:00 -3°C° 0 mm 4 mps 758 mmHg 75%
    03:00 -3°C° 0 mm 4 mps 758 mmHg 75%
    04:00 -3°C° 0 mm 4 mps 758 mmHg 75%
    05:00 -3°C° 0 mm 4 mps 758 mmHg 75%
    06:00 -3°C° 0 mm 4 mps 758 mmHg 75%
    07:00 -3°C° 0 mm 4 mps 758 mmHg 76%
    08:00 -2°C° 0 mm 3 mps 759 mmHg 76%
    09:00 -2°C° 0 mm 3 mps 759 mmHg 74%
    10:00 -3°C° 0 mm 4 mps 759 mmHg 72%
    11:00 -2°C° 0 mm 4 mps 759 mmHg 70%
    12:00 -1°C° 0 mm 3 mps 759 mmHg 70%
    13:00 -1°C° 0 mm 3 mps 759 mmHg 70%
    14:00 -1°C° 0 mm 3 mps 759 mmHg 69%
    15:00 -1°C° 0 mm 2 mps 759 mmHg 70%
    16:00 -2°C° 0 mm 2 mps 759 mmHg 70%
    17:00 0°C° 0 mm 1 mps 759 mmHg 71%
    18:00 0°C° 0 mm 1 mps 759 mmHg 70%
    19:00 0°C° 0 mm 1 mps 759 mmHg 70%
    20:00 0°C° 0 mm 1 mps 760 mmHg 69%
    21:00 0°C° 0 mm 1 mps 760 mmHg 69%
    22:00 0°C° 0 mm 1 mps 760 mmHg 69%
    23:00 0°C° 0 mm 1 mps 760 mmHg 69%

    21 December, Thursday

    Time Temperature Precipitation Wind Pressure Humidity
    00:00 0°C° 0 mm 1 mps 760 mmHg 68%
    01:00 0°C° 0 mm 1 mps 759 mmHg 67%
    02:00 0°C° 0 mm 1 mps 759 mmHg 66%
    03:00 0°C° 0 mm 1 mps 759 mmHg 66%
    04:00 0°C° 0 mm 1 mps 759 mmHg 66%
    05:00 -1°C° 0 mm 1 mps 759 mmHg 65%
    06:00 0°C° 0 mm 1 mps 759 mmHg 66%
    07:00 0°C° 0 mm 1 mps 759 mmHg 66%
    08:00 0°C° 0 mm 1 mps 759 mmHg 67%
    09:00 0°C° 0 mm 1 mps 759 mmHg 66%
    10:00 0°C° 0 mm 1 mps 758 mmHg 65%
    11:00 +1°C° 0 mm 1 mps 758 mmHg 64%
    12:00 -1°C° 0 mm 2 mps 758 mmHg 64%
    13:00 -1°C° 0 mm 2 mps 757 mmHg 65%
    14:00 -1°C° 0 mm 2 mps 757 mmHg 66%
    15:00 -1°C° 0 mm 2 mps 757 mmHg 70%
    16:00 -2°C° 0 mm 2 mps 757 mmHg 74%
    17:00 -2°C° 0 mm 2 mps 757 mmHg 77%
    18:00 -2°C° 0 mm 2 mps 757 mmHg 79%
    19:00 -2°C° 0 mm 2 mps 756 mmHg 80%
    20:00 -2°C° 0 mm 2 mps 756 mmHg 82%
    21:00 -3°C° 0 mm 2 mps 756 mmHg 83%
    22:00 -3°C° 0 mm 2 mps 755 mmHg 85%
    23:00 -3°C° 0 mm 2 mps 755 mmHg 86%
    Show more